Regional Weather Roundup
Issued by NWS

Home | Current Version | Previous Version | Graphics & Text | Print | Product List | Glossary On
Versions: 1 2 3 4 5 6 7 8 9 10 11 12 13 14 15 16 17 18 19 20 21 22 23 24 25 26 27 28 29 30 31 32 33 34 35 36 37 38 39 40 41 42 43 44 45 46 47 48 49 50
000
ASUS43 KDTX 171601
RWRMI
MICHIGAN HOURLY REGIONAL WEATHER ROUNDUP
NATIONAL WEATHER SERVICE DETROIT/PONTIAC MI
1200 PM EDT THU APR 17 2014

NOTE: "FAIR" INDICATES FEW OR NO CLOUDS BELOW 12,000 FEET WITH NO
SIGNIFICANT WEATHER AND/OR OBSTRUCTION TO VISIBILITY.

MIZ047>049-052>055-059>063-066>070-074>076-081>083-171700-
SOUTHEAST LOWER MICHIGAN

CITY           SKY/WX    TMP DP  RH WIND       PRES   REMARKS
ADRIAN         SUNNY     51  30  44 S7        30.31F
ALMA           MOSUNNY   49  29  46 S9G16     30.26F
ANN ARBOR      SUNNY     52  27  38 S12       30.31F
BAD AXE        MOSUNNY   45  29  53 S14       30.33F
CARO           SUNNY     51  28  41 SE12G18   30.29F
DETROIT        PTSUNNY   51  28  41 SE10      30.34S
FLINT          MOSUNNY   54  28  36 SE15      30.30F
GROSSE ILE     SUNNY     46  30  53 SE8       30.34R
HILLSDALE      SUNNY     52  28  39 SE9       30.28R
HOWELL         SUNNY     51  26  37 SE12      30.28F

CITY           SKY/WX    TMP DP  RH WIND       PRES   REMARKS
JACKSON        SUNNY     52  27  38 S13       30.27F
LAMBERTVILLE   SUNNY     55  30  38 S7        30.32F
LANSING        SUNNY     53  27  36 SE13      30.26F
LAPEER         FAIR      49  31  48 S8        30.32F
MASON          SUNNY     51  30  43 SE12G17   30.27S
MONROE         SUNNY     52  28  40 CALM      30.32S
MT. CLEMENS    PTSUNNY   49  31  49 SE12      30.34F
PONTIAC        PTSUNNY   49  26  41 SE12      30.31F
PORT HOPE        N/A     42  28  57 SE16G25   30.32F
PORT HURON     SUNNY     50  30  46 S14       30.36S
TRI CITIES     SUNNY     50  29  44 S10       30.28F
TROY           MOSUNNY   52  26  37 S6        30.34F
SAGINAW HB     SUNNY     50  30  46 SE14      30.28F
YPSILANTI      SUNNY     55  27  34 SE10      30.32F
$$
MIZ043>046-050>051-056>058-064>065-071>073-077>080-171700-
SOUTHWEST LOWER MICHIGAN

CITY           SKY/WX    TMP DP  RH WIND       PRES   REMARKS
BATTLE CREEK   MOSUNNY   54  28  36 S16G23    30.24F
BENTON HARBOR  MOSUNNY   55  29  36 S13G22    30.20S
BIG RAPIDS     CLOUDY    47  28  47 SE12G21   30.20F
COLDWATER      SUNNY     55  27  34 SW8G17    30.25F
FREMONT        CLOUDY    49  26  40 S10G20    30.20R
HOLLAND        CLOUDY    55  31  39 S16G24    30.21R
GRAND RAPIDS   PTSUNNY   55  30  38 S13G22    30.22F
IONIA          FAIR      52  29  41 S14G20    30.23F
KALAMAZOO      SUNNY     56  28  34 S14G24    30.23F
LUDINGTON      PTSUNNY   49  30  48 S12G20    30.16F
MARSHALL       SUNNY     53  27  37 SE13      30.25F
MOUNT PLEASANT SUNNY     46  31  55 SE14      30.26S
MUSKEGON       CLOUDY    53  26  35 S21G35    30.20R
SOUTH HAVEN    MOSUNNY   56  28  33 S12G20    30.19S
$$
MIZ016>042-171700-
NORTHERN LOWER MICHIGAN

CITY           SKY/WX    TMP DP  RH WIND       PRES   REMARKS
ALPENA         SUNNY     40  26  57 SE21G31   30.32F WCI  30
BEAVER ISLAND  CLOUDY    42  26  53 E10       30.23F
BELLAIRE       CLOUDY    45  22  39 SE8G22    30.22F
CADILLAC       CLOUDY    40  26  57 SE14      30.20S WCI  32
CHARLEVOIX     CLOUDY    46  22  40 SE14G23   30.25S
FRANKFORT      CLOUDY    41  25  52 SE13      30.18S
GAYLORD        CLOUDY    41  22  46 SE16      30.23F
GRAYLING       PTSUNNY   44  22  40 SE15G21   30.24F
HARBOR SPRINGS CLOUDY    46  24  42 E8        30.23F
HOUGHTON LAKE  PTSUNNY   43  23  45 SE16      30.24F
MANISTEE       CLOUDY    45  25  45 SE12G18   30.18S
OSCODA         MOSUNNY   42  29  60 SE12      30.32F
PELLSTON       PTSUNNY   44  22  41 SE12G25   30.26F
ROGERS CITY    SUNNY     41  28  60 SE15G23   30.32F
TRAVERSE CITY  CLOUDY    42  23  46 SE9       30.18F
$$
MIZ007>008-015-171700-
EASTERN UPPER MICHIGAN

CITY           SKY/WX    TMP DP  RH WIND       PRES   REMARKS
KINROSS        MOSUNNY   36  28  75 E18G29    30.30F WCI  25
MACKINAC ISLAN CLOUDY    33  29  83 E18G31    30.28F WCI  22
NEWBERRY       CLOUDY    35  28  75 SE14G25   30.24F WCI  25
S. S. MARIE    MOSUNNY   35  23  61 SE20G30   30.32F WCI  24
$$
MIZ004>006-011>014-085-171700-
CENTRAL UPPER MICHIGAN

CITY           SKY/WX    TMP DP  RH WIND       PRES   REMARKS
MANISTIQUE     CLOUDY    34  30  85 E12G20    30.22S WCI  25
ESCANABA       CLOUDY    32  28  86 E10       30.18F WCI  24
MENOMINEE      CLOUDY    36  30  80 SE10      30.14S WCI  28
SAWYER-GWINN   SNOW      30  28  93 SE10      30.16F VSB 1/2 WCI  21
$$
MIZ001>003-009>011-084-171700-
WESTERN UPPER MICHIGAN

CITY           SKY/WX    TMP DP  RH WIND       PRES   REMARKS
IRON MOUNTAIN  LGT SNOW  33  30  88 SE7       30.11F VSB 1   WCI  27
HOUGHTON       HVY SNOW  30  27  88 E15       30.16F VSB 1/4 WCI  19
COPPER HARBOR    N/A     32  29  88 S9G21     30.21F WCI  24
IRONWOOD       CLOUDY    34  28  80 CALM      30.08R
$$

ABBREVIATIONS USED IN REMARKS
   TC - TEMPERATURE IN CELSIUS
  WCI - WIND CHILL INDEX
   HX - HEAT INDEX
  VSB - VISIBILITY




USA.gov is the U.S. government's official web portal to all federal, state and local government web resources and services.